sat.trackr.live / text

‹ back to catalog

LUCH-5X (OLYMP-K 2)

NORAD 55841 · 2023-031A

PAYLOAD ACTIVE UNKNOWN

§ Identity

Operator
Country
CIS
Launch date
2023-03-12
Launch site
TYMSC
Launch vehicle
Mass (kg)
RCS (m²)

Purposes: comms

External: N2YO · Heavens-Above · Gunter

§ Orbital elements

Epoch: 2026-09-19T00:09:34.481376Z

Period
1,436.17 min
Inclination
0.0148°
Eccentricity
0.0000862
Mean motion
1.00266669 rev/d
Perigee alt
35,784.4 km
Apogee alt
35,791.7 km
Semi-major
42,166.2 km
B*
0.0000e+0
RAAN
118.5270°
Arg perigee
73.4707°
Mean anomaly
230.3066°
Rev number
1,287

§ Raw data

LUCH-5X (OLYMP-K 2)1 55841U 23031A   26262.00664909  .00000030  00000+0  00000+0 0  99952 55841   0.0148 118.5270 0000862  73.4707 230.3066  1.00266669 12870

JSON: /api/v1/satellites/55841 · /tle

For live sub-satellite position, see the globe view (requires WebGL).

§ Visibility from observer

Set your observer location to see the next 7 days of passes ≥ 10°. The values pass through the URL so the page stays shareable.

No JS? Fill the form by hand. The geolocation button needs JavaScript.